DAL1582 SKBO-SVMC

Flight info

Callsign DAL1582
Flight time 0h 59m
Altitude FL310
Route OSUS4R OSUSU BOBAT BOBAT1
Aircraft B733/M-S/NAEXS

Departure

Time 2026-04-30 21:11
Airport El Dorado International Airport (SKBO)

Arrival

Time 2026-04-30 22:11
Airport La Chinita International Airport (SVMC)
Time Latitude Longitude Altitude Speed Heading
2026-04-30 21:07 4.71212 -74.16891 8367 ft 9 kts 211°
2026-04-30 21:07 4.71179 -74.16911 8367 ft 9 kts 212°
2026-04-30 21:08 4.71129 -74.16917 8367 ft 6 kts 133°
2026-04-30 21:08 4.71106 -74.16903 8367 ft 4 kts 154°
2026-04-30 21:08 4.71076 -74.16889 8367 ft 5 kts 156°
2026-04-30 21:08 4.71038 -74.16875 8367 ft 6 kts 162°
2026-04-30 21:09 4.71012 -74.16859 8367 ft 0 kts 126°
2026-04-30 21:09 4.71012 -74.16858 8367 ft 0 kts 126°
2026-04-30 21:10 4.71009 -74.16854 8367 ft 7 kts 126°
2026-04-30 21:10 4.70869 -74.16669 8367 ft 59 kts 128°
2026-04-30 21:10 4.70525 -74.16218 8367 ft 104 kts 127°
2026-04-30 21:11 4.70007 -74.15534 8367 ft 141 kts 127°
2026-04-30 21:11 4.69361 -74.14679 8367 ft 172 kts 129°
2026-04-30 21:11 4.68573 -74.13687 8545 ft 186 kts 128°
2026-04-30 21:11 4.67793 -74.12644 8966 ft 191 kts 128°
2026-04-30 21:12 4.67124 -74.11463 9312 ft 203 kts 114°
2026-04-30 21:12 4.66804 -74.10031 9489 ft 226 kts 96°
2026-04-30 21:12 4.66997 -74.08405 9793 ft 245 kts 73°
2026-04-30 21:12 4.67816 -74.06893 10303 ft 254 kts 52°
2026-04-30 21:13 4.69138 -74.05730 11031 ft 249 kts 32°
2026-04-30 21:13 4.70644 -74.05097 11796 ft 242 kts 15°
2026-04-30 21:13 4.72276 -74.04712 12409 ft 243 kts 11°
2026-04-30 21:13 4.73991 -74.04428 12809 ft 259 kts
2026-04-30 21:14 4.75818 -74.04236 13231 ft 273 kts
2026-04-30 21:14 4.77818 -74.04188 13384 ft 299 kts 360°
2026-04-30 21:14 4.79967 -74.04203 13655 ft 320 kts 359°
2026-04-30 21:14 4.82249 -74.04247 13965 ft 340 kts 357°
2026-04-30 21:15 4.84601 -74.04214 14542 ft 350 kts
2026-04-30 21:15 4.87000 -74.03795 15338 ft 353 kts 18°
2026-04-30 21:15 4.89320 -74.02963 16167 ft 356 kts 19°
2026-04-30 21:15 4.91655 -74.02137 16878 ft 361 kts 19°
2026-04-30 21:16 4.94025 -74.01270 17597 ft 365 kts 20°
2026-04-30 21:16 4.96335 -74.00561 18214 ft 370 kts 15°
2026-04-30 21:16 4.98715 -73.99548 18990 ft 370 kts 30°
2026-04-30 21:16 5.01020 -73.98349 19557 ft 378 kts 20°
2026-04-30 21:17 5.03559 -73.97645 20258 ft 378 kts 11°
2026-04-30 21:17 5.06125 -73.97136 20895 ft 383 kts 12°
2026-04-30 21:17 5.08756 -73.96558 21550 ft 387 kts 12°
2026-04-30 21:17 5.11281 -73.95984 22155 ft 391 kts 13°
2026-04-30 21:18 5.13953 -73.95360 22732 ft 396 kts 13°
2026-04-30 21:18 5.16635 -73.94755 23365 ft 398 kts 13°
2026-04-30 21:18 5.18986 -73.94201 23903 ft 401 kts 13°
2026-04-30 21:18 5.21476 -73.93598 24407 ft 406 kts 14°
2026-04-30 21:19 5.24235 -73.92912 25008 ft 409 kts 14°
2026-04-30 21:19 5.26965 -73.92110 25556 ft 412 kts 22°
2026-04-30 21:19 5.29560 -73.90914 26116 ft 415 kts 26°
2026-04-30 21:19 5.32209 -73.89691 26647 ft 419 kts 25°
2026-04-30 21:20 5.34843 -73.88484 27158 ft 422 kts 25°
2026-04-30 21:20 5.37550 -73.87251 27700 ft 425 kts 25°
2026-04-30 21:20 5.40247 -73.86024 28213 ft 428 kts 25°
2026-04-30 21:20 5.42940 -73.84799 28672 ft 432 kts 25°
2026-04-30 21:21 5.45679 -73.83561 29175 ft 434 kts 25°
2026-04-30 21:21 5.48447 -73.82305 29660 ft 436 kts 25°
2026-04-30 21:21 5.54005 -73.79797 30475 ft 442 kts 25°
2026-04-30 21:22 5.56810 -73.78528 30811 ft 447 kts 25°
2026-04-30 21:23 5.68336 -73.73324 30914 ft 457 kts 25°
2026-04-30 21:23 5.76915 -73.69456 30915 ft 459 kts 24°
2026-04-30 21:24 5.82756 -73.66817 30916 ft 461 kts 24°
2026-04-30 21:24 5.88620 -73.64172 30915 ft 462 kts 25°
2026-04-30 21:25 5.97363 -73.60224 30914 ft 460 kts 25°
2026-04-30 21:26 6.06124 -73.56268 30913 ft 459 kts 25°
2026-04-30 21:27 6.14737 -73.52378 30912 ft 459 kts 25°
2026-04-30 21:27 6.20474 -73.49783 30913 ft 462 kts 25°
2026-04-30 21:28 6.29262 -73.45811 30913 ft 461 kts 25°
2026-04-30 21:29 6.38036 -73.41842 30917 ft 463 kts 25°
2026-04-30 21:30 6.52629 -73.35238 30915 ft 460 kts 25°
2026-04-30 21:31 6.67193 -73.28645 30913 ft 461 kts 25°
2026-04-30 21:32 6.75898 -73.24702 30917 ft 462 kts 25°
2026-04-30 21:32 6.81735 -73.22060 30915 ft 460 kts 25°
2026-04-30 21:33 6.90456 -73.18104 30915 ft 459 kts 25°
2026-04-30 21:34 6.96096 -73.15546 30916 ft 459 kts 25°
2026-04-30 21:34 7.04878 -73.11566 30915 ft 460 kts 25°
2026-04-30 21:35 7.10721 -73.08911 30916 ft 459 kts 24°
2026-04-30 21:35 7.16539 -73.06271 30916 ft 462 kts 24°
2026-04-30 21:36 7.22295 -73.03658 30914 ft 461 kts 25°
2026-04-30 21:37 7.33970 -72.98353 30915 ft 462 kts 25°
2026-04-30 21:37 7.39651 -72.95773 30915 ft 461 kts 24°
2026-04-30 21:38 7.45529 -72.93102 30912 ft 462 kts 24°
2026-04-30 21:38 7.51370 -72.90445 30915 ft 464 kts 24°
2026-04-30 21:39 7.57212 -72.87788 30911 ft 465 kts 24°
2026-04-30 21:39 7.63137 -72.85095 30911 ft 466 kts 24°
2026-04-30 21:40 7.69052 -72.82402 30916 ft 467 kts 25°
2026-04-30 21:40 7.74823 -72.79774 30916 ft 466 kts 25°
2026-04-30 21:41 7.80756 -72.77075 30914 ft 467 kts 25°
2026-04-30 21:41 7.86689 -72.74370 30916 ft 468 kts 25°
2026-04-30 21:42 7.92531 -72.71710 30915 ft 467 kts 25°
2026-04-30 21:42 7.98510 -72.68984 30917 ft 468 kts 24°
2026-04-30 21:43 8.04421 -72.66293 30914 ft 467 kts 25°
2026-04-30 21:43 8.10277 -72.63620 30918 ft 467 kts 25°
2026-04-30 21:44 8.16210 -72.60914 30912 ft 463 kts 26°
2026-04-30 21:44 8.22014 -72.58263 30916 ft 463 kts 26°
2026-04-30 21:45 8.27814 -72.55615 30912 ft 465 kts 25°
2026-04-30 21:45 8.33780 -72.52887 30915 ft 467 kts 25°
2026-04-30 21:46 8.39661 -72.50206 30915 ft 466 kts 25°
2026-04-30 21:46 8.45517 -72.47530 30914 ft 467 kts 25°
2026-04-30 21:47 8.51470 -72.44807 30914 ft 467 kts 25°
2026-04-30 21:47 8.57371 -72.42109 30915 ft 467 kts 25°
2026-04-30 21:48 8.63252 -72.39416 30915 ft 467 kts 25°
2026-04-30 21:48 8.69198 -72.36695 30919 ft 467 kts 25°
2026-04-30 21:49 8.75011 -72.34038 30911 ft 467 kts 25°
2026-04-30 21:49 8.80892 -72.31342 30916 ft 467 kts 25°
2026-04-30 21:50 8.86784 -72.28643 30911 ft 464 kts 26°
2026-04-30 21:50 8.92671 -72.25948 30917 ft 463 kts 26°
2026-04-30 21:51 8.98504 -72.23272 30915 ft 463 kts 26°
2026-04-30 21:51 9.04409 -72.20564 30920 ft 468 kts 25°
2026-04-30 21:52 9.10234 -72.17898 30729 ft 457 kts 24°
2026-04-30 21:52 9.13149 -72.16555 30000 ft 452 kts 24°
2026-04-30 21:52 9.16008 -72.15243 28916 ft 455 kts 24°
2026-04-30 21:53 9.18894 -72.13920 27773 ft 451 kts 24°
2026-04-30 21:53 9.21531 -72.12711 26741 ft 435 kts 25°
2026-04-30 21:53 9.24235 -72.11471 25915 ft 415 kts 25°
2026-04-30 21:53 9.26819 -72.10282 25278 ft 407 kts 25°
2026-04-30 21:54 9.28477 -72.09523 24911 ft 406 kts 24°
2026-04-30 21:54 9.31006 -72.08358 24347 ft 404 kts 24°
2026-04-30 21:54 9.33550 -72.07190 23769 ft 403 kts 25°
2026-04-30 21:54 9.36115 -72.06011 23186 ft 401 kts 25°
2026-04-30 21:55 9.38682 -72.04831 22601 ft 400 kts 25°
2026-04-30 21:55 9.41201 -72.03671 22016 ft 399 kts 25°
2026-04-30 21:55 9.43713 -72.02518 21453 ft 397 kts 25°
2026-04-30 21:55 9.46179 -72.01383 20890 ft 396 kts 25°
2026-04-30 21:56 9.48717 -72.00216 20301 ft 395 kts 26°
2026-04-30 21:56 9.51218 -71.99065 19737 ft 393 kts 26°
2026-04-30 21:56 9.53696 -71.97926 19167 ft 391 kts 25°
2026-04-30 21:56 9.56167 -71.96789 18602 ft 390 kts 26°
2026-04-30 21:57 9.58626 -71.95656 18044 ft 388 kts 25°
2026-04-30 21:57 9.61075 -71.94528 17482 ft 387 kts 25°
2026-04-30 21:57 9.63523 -71.93421 16966 ft 384 kts 25°
2026-04-30 21:57 9.65923 -71.92317 16474 ft 381 kts 25°
2026-04-30 21:58 9.68301 -71.91218 15914 ft 381 kts 25°
2026-04-30 21:58 9.70595 -71.90158 15396 ft 379 kts 25°
2026-04-30 21:58 9.72934 -71.89079 14856 ft 378 kts 25°
2026-04-30 21:58 9.75362 -71.87958 14306 ft 376 kts 25°
2026-04-30 21:59 9.77760 -71.86851 13754 ft 375 kts 25°
2026-04-30 21:59 9.80118 -71.85762 13218 ft 373 kts 25°
2026-04-30 21:59 9.82478 -71.84674 12677 ft 371 kts 25°
2026-04-30 22:00 9.87039 -71.82570 11719 ft 349 kts 25°
2026-04-30 22:00 9.91335 -71.80590 11185 ft 333 kts 24°
2026-04-30 22:00 9.93483 -71.79871 10915 ft 321 kts
2026-04-30 22:01 9.95592 -71.79637 10777 ft 290 kts
2026-04-30 22:01 9.97574 -71.79402 10590 ft 285 kts
2026-04-30 22:01 9.99551 -71.79172 10440 ft 284 kts
2026-04-30 22:01 10.01513 -71.78936 9950 ft 287 kts
2026-04-30 22:02 10.03484 -71.78694 9460 ft 288 kts
2026-04-30 22:02 10.05471 -71.78447 9057 ft 285 kts
2026-04-30 22:02 10.07416 -71.78205 8660 ft 282 kts
2026-04-30 22:02 10.09354 -71.77960 8246 ft 280 kts
2026-04-30 22:03 10.11272 -71.77716 7847 ft 277 kts
2026-04-30 22:03 10.13180 -71.77472 7448 ft 274 kts
2026-04-30 22:03 10.15062 -71.77227 7053 ft 271 kts
2026-04-30 22:03 10.16908 -71.76988 6666 ft 268 kts
2026-04-30 22:04 10.18752 -71.76748 6279 ft 265 kts
2026-04-30 22:04 10.20510 -71.76518 6048 ft 264 kts
2026-04-30 22:04 10.24180 -71.76041 5996 ft 268 kts
2026-04-30 22:05 10.25980 -71.75944 5769 ft 249 kts 355°
2026-04-30 22:05 10.27659 -71.76110 5241 ft 241 kts 353°
2026-04-30 22:05 10.29280 -71.76279 4969 ft 225 kts 353°
2026-04-30 22:05 10.30799 -71.76440 4553 ft 219 kts 352°
2026-04-30 22:06 10.32297 -71.76595 4202 ft 215 kts 352°
2026-04-30 22:06 10.35174 -71.76893 3621 ft 205 kts 352°
2026-04-30 22:06 10.36576 -71.77039 3327 ft 201 kts 353°
2026-04-30 22:07 10.37927 -71.77175 3051 ft 200 kts 353°
2026-04-30 22:07 10.39313 -71.77318 2770 ft 197 kts 353°
2026-04-30 22:07 10.40679 -71.77456 2490 ft 195 kts 354°
2026-04-30 22:07 10.42000 -71.77591 2206 ft 193 kts 354°
2026-04-30 22:08 10.43313 -71.77503 1922 ft 192 kts 14°
2026-04-30 22:08 10.44569 -71.77075 1798 ft 182 kts 22°
2026-04-30 22:08 10.45688 -71.76601 1783 ft 168 kts 24°
2026-04-30 22:08 10.46764 -71.76147 1807 ft 165 kts 22°
2026-04-30 22:09 10.47818 -71.75733 1788 ft 168 kts 21°
2026-04-30 22:09 10.48893 -71.75326 1580 ft 165 kts 21°
2026-04-30 22:09 10.49940 -71.74939 1311 ft 156 kts 21°
2026-04-30 22:09 10.50943 -71.74568 1072 ft 152 kts 21°
2026-04-30 22:10 10.51914 -71.74194 844 ft 148 kts 22°
2026-04-30 22:10 10.52880 -71.73855 643 ft 145 kts 20°
2026-04-30 22:10 10.53829 -71.73533 507 ft 146 kts 21°
2026-04-30 22:10 10.54766 -71.73191 342 ft 150 kts 21°
2026-04-30 22:11 10.56314 -71.72612 242 ft 64 kts 19°
2026-04-30 22:11 10.56644 -71.72489 242 ft 45 kts 18°
2026-04-30 22:11 10.56861 -71.72354 242 ft 30 kts 41°
2026-04-30 22:12 10.56974 -71.72253 242 ft 15 kts 28°
2026-04-30 22:12 10.57023 -71.72186 242 ft 12 kts 66°
2026-04-30 22:12 10.57018 -71.72115 242 ft 7 kts 108°
2026-04-30 22:12 10.57000 -71.72057 242 ft 9 kts 107°
2026-04-30 22:13 10.56983 -71.71994 242 ft 9 kts 91°
2026-04-30 22:13 10.57030 -71.71960 242 ft 8 kts 32°
2026-04-30 22:13 10.57033 -71.71899 242 ft 10 kts 97°
2026-04-30 22:13 10.57029 -71.71833 242 ft 7 kts 132°
2026-04-30 22:14 10.56995 -71.71836 242 ft 6 kts 192°
2026-04-30 22:14 10.56968 -71.71842 242 ft 0 kts 192°